Regional Weather Roundup
Issued by NWS Cleveland, OH

Home | Current Version | Previous Version | Text Only | Print | Product List | Glossary Off
Versions: 1 2 3 4 5 6 7 8 9 10 11 12 13 14 15 16 17 18 19 20 21 22 23 24 25 26 27 28 29 30 31 32 33 34 35 36 37 38 39 40 41 42 43 44 45 46 47 48 49 50

000
ASUS41 KCLE 060310
RWRCLE
OHIO REGIONAL WEATHER ROUNDUP
NATIONAL WEATHER SERVICE WILMINGTON, OH
1100 PM EDT THU MAY 05 2016

NOTE: "FAIR" INDICATES FEW OR NO CLOUDS BELOW 12,000 FEET WITH NO
SIGNIFICANT WEATHER AND/OR OBSTRUCTIONS TO VISIBILITY.

OHZ001>008-015>018-024>027-034-035-043-044-060400-
   NORTHWEST OHIO

CITY           SKY/WX    TMP DP  RH WIND       PRES   REMARKS
DEFIANCE       FAIR      56  38  50 N5        29.91R
FINDLAY        FAIR      53  36  52 N7        29.89R
TOLEDO EXPRESS FAIR      53  40  61 N3        29.90R
TOLEDO EXEC    FAIR      52  40  63 CALM      29.90R
LIMA           FAIR      50  44  80 NW5       29.90R
$$

OHZ009>014-019>023-028>033-038-089-060400-
   NORTHEAST OHIO

CITY           SKY/WX    TMP DP  RH WIND       PRES   REMARKS
CLE-HOPKINS    FAIR      51  45  79 NW7       29.88R
CLE-LAKEFRONT  FAIR      50  46  86 SW3       29.85R
CUY CO. ARPT   PTCLDY    46  45  93 CALM      29.86R
LORAIN-ELYRIA  FAIR      49  43  80 NW3       29.87R
ASHTABULA      FAIR      48  44  86 N6        29.84R
AKRON-CANTON   FAIR      50  42  74 N12       29.82R
WOOSTER        FAIR      46  43  89 N7        29.85R
MANSFIELD      CLOUDY    48  43  82 N6        29.86R
YOUNGSTOWN     FAIR      50  42  74 N10       29.81R
$$

OHZ042-051>053-060>062-070>072-077>081-060400-
  SOUTHWEST OHIO

CITY           SKY/WX    TMP DP  RH WIND       PRES   REMARKS
CINC-COVINGTON CLOUDY    54  46  74 NW5       29.89R
CINC-LUNKEN    CLOUDY    52  49  89 CALM      29.90R
HAMILTON       CLOUDY    53  47  79 NW5       29.90R
DAYTON         FAIR      50  42  74 NW6       29.90R
WRIGHT-PAT AFB MOCLDY    49  44  82 CALM      29.89R
DAYTON GENERAL FAIR      53  41  63 NW5       29.88R
WILMINGTON     FAIR      51  38  60 NW5       29.88R
$$

OHZ036-037-039>041-045>050-054>059-063>069-073>076-082>088-060400-
  CENTRAL AND SOUTHEAST OHIO

CITY           SKY/WX    TMP DP  RH WIND       PRES   REMARKS
COLUMBUS       MOCLDY    53  42  66 N7        29.85R
OSU AIRPORT    FAIR      52  41  66 NW8       29.86R
BOLTON FIELD   CLOUDY    51  42  72 NW6       29.87R
RICKENBACK AFB CLOUDY    55  42  62 N9        29.85R
NEWARK         FAIR      54  42  64 N7        29.83R
MARION         FAIR      50  41  71 N7        29.88R
LANCASTER      FAIR      50  42  74 N5        29.85R
ZANESVILLE     FAIR      55  42  61 N8        29.81R
NEW PHILLY     FAIR      53  42  66 NW8       29.81R
$$




USA.gov is the U.S. government's official web portal to all federal, state and local government web resources and services.